Location: Argonnex
(45.9500°N, 6.1333°E)
Time: 08:44:31
(UTC+00:00)

CZ-6A DEB - Pass Details

Date: 25 February 2024
Orbit: 827 x 907 km, 98.8° (Epoch: 12 April)

Event Time Altitude Azimuth Distance (km) Brightness Sun altitude
Rises 17:44:50 0° 201° (SSW) 3,521 ? -5.9°
Reaches altitude 10° 17:47:44 10° 215° (SW) 2,580 ? -6.4°
Maximum altitude 17:52:18 24° 267° (W) 1,778 ? -7.2°
Drops below altitude 10° 17:56:51 10° 320° (NW) 2,567 ? -7.9°
Sets 17:59:44 0° 335° (NNW) 3,500 ? -8.4°
